This is the latest recevied weather packets stored in our database for station/object OE6JUE. If no packets are shown the sender has not sent any weather packets the latest 10 day(s).
| Time | Temp. | Humidity | Pressure | Rain* | Wind** | Luminosity | Snow |
|---|---|---|---|---|---|---|---|
| 1777966632 | 22.78° C | 33% | 1012.4 hPa | 0 mm | - | - | - |
| 1777966332 | 22.78° C | 33% | 1012.5 hPa | 0 mm | - | - | - |
| 1777966032 | 22.78° C | 32% | 1012.5 hPa | 0 mm | - | - | - |
| 1777965733 | 23.33° C | 32% | 1012.5 hPa | 0 mm | - | - | - |
| 1777965432 | 22.78° C | 34% | 1012.5 hPa | 0 mm | - | - | - |
| 1777965132 | 22.22° C | 40% | 1012.5 hPa | 0 mm | - | - | - |
| 1777964832 | 21.11° C | 38% | 1012.6 hPa | 0 mm | - | - | - |
| 1777964532 | 21.11° C | 40% | 1012.7 hPa | - | - | - | - |
| 1777964232 | 21.11° C | 40% | 1012.7 hPa | 0 mm | - | - | - |
| 1777963932 | 21.11° C | 40% | 1012.8 hPa | 0 mm | - | - | - |
| 1777963632 | 20.56° C | 42% | 1012.9 hPa | 0 mm | - | - | - |
| 1777963332 | 20.56° C | 43% | 1012.7 hPa | 0 mm | - | - | - |
| 1777963032 | 20.56° C | 41% | 1012.8 hPa | 0 mm | - | - | - |
| 1777962732 | 20.56° C | 42% | 1012.8 hPa | 0 mm | - | - | - |
| 1777962432 | 20.56° C | 41% | 1012.8 hPa | 0 mm | - | - | - |
| 1777962132 | 21.11° C | 41% | 1012.7 hPa | 0 mm | - | - | - |
| 1777961832 | 21.11° C | 42% | 1012.5 hPa | 0 mm | - | - | - |
| 1777961532 | 20° C | 46% | 1012.5 hPa | 0 mm | - | - | - |
| 1777961232 | 19.44° C | 47% | 1012.6 hPa | 0 mm | - | - | - |
| 1777960931 | 19.44° C | 47% | 1012.5 hPa | - | - | - | - |
| 1777960632 | 18.89° C | 49% | 1012.6 hPa | 0 mm | - | - | - |
| 1777960332 | 18.33° C | 50% | 1012.6 hPa | 0 mm | - | - | - |
| 1777960032 | 17.78° C | 50% | 1012.6 hPa | 0 mm | - | - | - |
| 1777959731 | 17.22° C | 52% | 1012.5 hPa | 0 mm | - | - | - |
| 1777959432 | 17.78° C | 51% | 1012.6 hPa | 0 mm | - | - | - |
* Rain latest hour (hover to see other rain measurements)
** Current wind speed in m/s (hover to see current wind gust speed)